www.pogodaiklimat.ru

Погода и климат >> Архив погоды >> Турция >> Edirne


ПОГОДА в Edirne

  • Прогноз погоды в Edirne
  • Монитор погоды в Edirne
  • Климат города

АРХИВ ПОГОДЫ в Edirne

Время (UTC), дата Ветер
(напр.,м/с)
 
Видим.   Явления Облачность Т
(С)
Тd
(С)
f
(%)
Тe
(С)
Тes
(С)
Комфортность P
(гПа)
Po
(гПа)
Тmin
(С)
Tmax
(С)
R
(мм)
R24
(мм)
S
(см)
03 13.07 С 1
{2}
20 км 4/0
[Ac trans]
+20.7 +18.0 85 +26 +26 душно 1012.5 1006.6
06 13.07 З 1
{2}
20 км ясно +24.7 +20.0 75 +30 +38 очень
душно
1012.4 1006.6 +19.6
07 13.07 З 1 20 км ясно +27.8 +21.0 67 +35 +48 очень
душно
1012.1 1006.3
08 13.07 СЗ 1 20 км ясно +29.3 +20.0 57 +36 +53 опасность
солнечного
удара
1011.9 1006.1
09 13.07 С 3
{5}
20 км 4/4 1200 м
[Cu med, cong]
+32.1 +19.0 46 +37 +46 очень
душно
1011.8 1006.0
10 13.07 СЗ 2 20 км 4/4 1000 м
[Cu hum]
+32.0 +18.0 43 +36 +48 очень
душно
1011.5 1005.7
11 13.07 С 3 20 км 4/4 1000 м
[Cu med, cong]
+33.4 +19.0 43 +39 +49 очень
душно
1010.9 1005.1
12 13.07 СЗ 3
{6}
20 км 4/4 1200 м
[Cu med, cong]
+33.6 +17.0 37 +37 +46 очень
душно
1010.4 1004.6
13 13.07 С 3 20 км 5/5 1000 м
[Cu med, cong]
+33.5 +18.0 40 +38 +43 очень
душно
1009.9 1004.1
14 13.07 С 3 20 км 5/5 1000 м
[Cu med, cong]
+34.1 +17.0 36 +37 +41 очень
душно
1009.6 1003.8
15 13.07 СЗ 2
{6}
20 км 4/4 1200 м
[Cu med, cong]
+33.4 +14.0 31 +35 +37 душно 1009.5 1003.7
16 13.07 СЗ 1 20 км 5/4 1000 м
[Cu med, cong Ac trans]
+31.0 +16.0 40 +34 +35 душно 1009.8 1004.0
17 13.07 СВ 2 20 км 5/4 1000 м
[Cu med, cong Ac trans]
+30.9 +18.0 46 +35 +35 очень
душно
1010.1 1004.3
18 13.07 СВ 1
{6}
20 км 4/4 1200 м
[Cu med, cong]
+29.1 +18.0 51 +34 +34 очень
душно
1010.6 1004.8 +34.2
21 13.07 СЗ 1
{4}
20 км 4/4 1200 м
[Cu med, cong]
+25.1 +17.0 61 +29 +29 душно 1011.8 1006.0
00 14.07 С 1
{4}
20 км 4/4 1200 м
[Cu med, cong]
+21.6 +17.0 75 +26 +26 душно 1011.6 1005.8
03 14.07 С 1
{3}
20 км 4/4 1200 м
[Cu med, cong]
+21.3 +17.0 76 +25 +25 комфорт 1011.6 1005.8
06 14.07 СЗ 2
{4}
20 км ясно +24.7 +16.0 58 +28 +35 душно 1011.8 1006.0 +20.7
07 14.07 С 2 20 км ясно +28.2 +17.0 51 +32 +44 душно 1012.0 1006.2
08 14.07 С 3 20 км 4/4 1000 м
[Cu med, cong]
+29.7 +15.0 41 +32 +40 душно 1012.0 1006.2
09 14.07 СЗ 2
{6}
20 км 3/3 1050 м
[Cu med, cong]
+30.3 +16.0 42 +33 +46 душно 1012.0 1006.2
10 14.07 С 3 20 км ясно +30.5 +15.0 39 +33 +50 душно 1011.5 1005.7
11 14.07 С 3 20 км ясно +31.5 +15.0 37 +34 +51 опасность
солнечного
удара
1011.3 1005.5
12 14.07 СЗ 2
{6}
20 км 4/4 1050 м
[Cu med, cong]
+31.3 +14.0 35 +33 +43 жарко 1011.1 1005.3
13 14.07 С 3 20 км 3/3 1000 м
[Cu med, cong]
+32.7 +14.0 32 +34 +42 очень
жарко
1010.4 1004.6
14 14.07 СЗ 3 20 км 5/4 1000 м
[Cu med, cong Ac trans]
+31.7 +13.0 32 +33 +37 жарко 1010.1 1004.3
15 14.07 З 3
{6}
20 км 6/5 1050 м
[Cu med, cong Ac trans]
+31.4 +14.0 35 +33 +35 жарко 1009.9 1004.1
16 14.07 СЗ 2 20 км 4/4 1000 м
[Cu med, cong]
+30.8 +15.0 38 +33 +34 душно 1009.9 1004.1
17 14.07 СЗ 2 20 км ясно +29.4 +14.0 39 +31 +32 жарко 1010.1 1004.3
18 14.07 СЗ 1
{6}
20 км 3/3 1050 м
[Cu med, cong]
+27.5 +13.0 41 +29 +29 жарко 1010.2 1004.4 +33.0
21 14.07 З 1
{4}
20 км ясно +22.7 +15.0 62 +27 +27 душно 1011.7 1005.9
00 15.07 З 2
{4}
20 км ясно +21.4 +14.0 63 +24 +24 комфорт 1011.4 1005.6
03 15.07 З 1
{3}
20 км ясно +21.1 +14.0 64 +24 +24 комфорт 1010.7 1004.9
06 15.07 СЗ 3
{5}
20 км ясно +25.8 +16.0 55 +29 +35 душно 1011.1 1005.3 +20.7
07 15.07 СЗ 3 20 км ясно +27.5 +15.0 46 +30 +39 жарко 1010.9 1005.1
08 15.07 З 3 20 км ясно +28.9 +17.0 49 +33 +46 очень
душно
1010.7 1004.9
09 15.07 С 2
{6}
20 км ясно +29.9 +14.0 38 +32 +50 жарко 1010.6 1004.8
10 15.07 С 2 20 км 3/3 1000 м
[Cu hum]
+30.0 +13.0 35 +31 +45 жарко 1010.3 1004.5
11 15.07 СЗ 3 20 км 5/5 1000 м
[Cu med, cong]
+30.5 +13.0 34 +32 +40 жарко 1010.1 1004.3
12 15.07 С 2
{6}
20 км 5/5 1050 м
[Cu med, cong]
+31.0 +14.0 36 +33 +42 душно 1009.8 1004.0
13 15.07 С 2 20 км 6/6 1000 м
[Cu med, cong]
+31.5 +14.0 35 +33 +39 жарко 1009.4 1003.6
14 15.07 С 3 20 км 4/4 1000 м
[Cu med, cong]
+32.7 +13.0 30 +33 +38 жарко 1009.1 1003.3
15 15.07 С 2
{5}
20 км 4/4 1050 м
[Cu med, cong]
+32.2 +12.0 29 +32 +36 жарко 1008.8 1003.0
16 15.07 С 2 20 км 4/4 1000 м
[Cu med, cong]
+32.2 +13.0 31 +33 +34 жарко 1008.7 1002.9
17 15.07 С 1 20 км ясно +30.2 +15.0 40 +33 +33 душно 1008.7 1002.9
18 15.07 С 1
{5}
20 км ясно +28.4 +15.0 44 +31 +31 душно 1008.8 1003.0 +32.8
21 15.07 СЗ 1
{3}
20 км ясно +22.9 +15.0 61 +27 +27 душно 1009.9 1004.1
00 16.07 СЗ 1
{3}
20 км ясно +21.1 +16.0 73 +24 +24 комфорт 1010.0 1004.2
03 16.07 С 1
{3}
20 км 5/3 1050 м
[Cu med, cong Ac trans]
+19.0 +14.0 73 +21 +21 комфорт 1010.1 1004.2
06 16.07 З 2
{4}
20 км 4/0
[Ac trans]
+24.8 +16.0 58 +28 +34 жарко 1010.0 1004.2 +19.0
07 16.07 З 2 20 км ясно +27.7 +16.0 49 +31 +42 душно 1009.7 1003.9
08 16.07 З 3 20 км 3/3 1000 м
[Cu med, cong]
+28.0 +17.0 51 +32 +40 душно 1009.7 1003.9
09 16.07 СЗ 3
{6}
20 км 3/3 1200 м
[Cu med, cong]
+29.9 +14.0 38 +32 +43 жарко 1009.5 1003.7
10 16.07 СЗ 3 20 км 4/4 1000 м
[Cu med, cong]
+31.4 +13.0 33 +32 +43 жарко 1009.7 1003.9
11 16.07 СЗ 2 20 км 4/4 1000 м
[Cu med, cong]
+31.5 +15.0 37 +34 +45 душно 1009.4 1003.6
12 16.07 З 2
{6}
20 км 4/4 1200 м
[Cu med, cong]
+31.5 +13.0 32 +32 +42 жарко 1009.3 1003.5
13 16.07 З 2 20 км 4/4 1000 м
[Cu med, cong]
+32.3 +13.0 31 +33 +41 жарко 1009.0 1003.2
14 16.07 СЗ 2 20 км 4/4 1000 м
[Cu med, cong]
+32.9 +15.0 34 +35 +40 душно 1008.7 1002.9
15 16.07 СЗ 2
{5}
20 км 4/4 1200 м
[Cu med, cong]
+32.2 +14.0 33 +34 +37 душно 1008.4 1002.6
16 16.07 С 2 20 км 4/4 1000 м
[Cu med, cong]
+31.7 +13.0 32 +33 +34 жарко 1008.4 1002.6
17 16.07 З 1 20 км 4/4 1000 м
[Cu med, cong]
+30.4 +13.0 34 +31 +32 жарко 1008.6 1002.8
18 16.07 СЗ 1
{5}
20 км 4/4 1200 м
[Cu med, cong]
+29.3 +15.0 42 +32 +32 душно 1008.7 1002.9 +32.9
21 16.07 СВ 1
{4}
20 км ясно +24.0 +15.0 57 +27 +27 жарко 1009.2 1003.4
00 17.07 С 2
{4}
20 км ясно +20.8 +16.0 74 +25 +25 комфорт 1008.4 1002.6
03 17.07 С 1
{2}
20 км ясно +18.9 +16.0 83 +22 +22 комфорт 1008.2 1002.4
06 17.07 ЮЗ 1
{2}
20 км ясно +23.9 +18.0 70 +28 +37 душно 1007.6 1001.8 +18.8
07 17.07 СЗ 1 20 км ясно +25.5 +17.0 59 +29 +43 душно 1007.1 1001.3
08 17.07 Ю 1 20 км ясно +28.2 +19.0 57 +33 +51 опасность
солнечного
удара
1006.8 1001.0
09 17.07 ЮВ 2
{4}
20 км ясно +28.6 +18.0 53 +33 +53 опасность
солнечного
удара
1006.5 1000.7
10 17.07 ЮЗ 1 20 км 4/4 1000 м
[Cu med, cong]
+30.8 +20.0 53 +37 +51 опасность
солнечного
удара
1006.2 1000.4
11 17.07 З 2 20 км 6/5 1000 м
[Cu med, cong Ac trans]
+32.0 +18.0 43 +36 +45 очень
душно
1005.5 999.7
12 17.07 З 2
{4}
20 км 8/6 800 м
[Cb calv Ac As]
+31.8 +15.0 36 +34 +38 душно 1004.9 999.1
13 17.07 З 3 4000 м гроза, ливневой дождь 9/6 600 м
[Cb cap Ac As]
+20.5 +18.0 86 +24 +26 комфорт 1007.2 1001.3
14 17.07 СЗ 1 4000 м гроза, ливневой дождь 9/6 600 м
[Cb cap Ac As]
+19.7 +18.0 90 +24 +26 комфорт 1006.2 1000.3
15 17.07 ЮВ 2
{10}
6000 м гроза, ливневой дождь 9/6 840 м
[Cb cap Ac As]
+21.2 +20.0 93 +26 +27 душно 1006.3 1000.4
16 17.07 ЮЗ 1 6000 м гроза, ливневой дождь 9/6 600 м
[Cb cap Ac As]
+21.0 +19.0 88 +27 +27 душно 1005.6 999.7
17 17.07 ЮЗ 1 6000 м гроза, ливневой дождь 9/6 600 м
[Cb cap Ac As]
+21.8 +19.0 84 +27 +27 душно 1005.0 999.1
18 17.07 С 2
{10}
20 км в посл. час гроза 9/6 1050 м
[Cu med, cong Ac As]
+21.9 +20.0 89 +28 +28 душно 1005.2 999.3 +32.3 15
21 17.07 штиль 0
{4}
20 км 8/5 1050 м
[Cu med, cong Ac As]
+20.9 +18.0 83 +25 +25 комфорт 1005.4 999.6
00 18.07 ЮЗ 1
{4}
20 км 8/5 1050 м
[Cu med, cong Ac As]
+21.2 +20.0 93 +26 +26 душно 1004.7 998.9
03 18.07 С 1
{2}
20 км 8/5 1050 м
[Cu med, cong Ac As]
+21.3 +19.0 87 +26 +26 душно 1005.0 999.1
06 18.07 СЗ 1 20 км 9/6 1050 м
[Cu med, cong Ac As]
+22.0 +18.0 78 +27 +28 душно 1005.9 1000.0 +20.7
07 18.07 З 2 20 км 6/4 1000 м
[Cu med, cong Ac As]
+23.4 +18.0 72 +29 +34 душно 1005.7 999.8
08 18.07 З 3 20 км 3/0
[Ac trans]
+25.5 +19.0 67 +30 +41 душно 1005.6 999.7
09 18.07 З 3
{5}
20 км 5/3 1050 м
[Cu med, cong Ac trans]
+27.2 +16.0 50 +30 +40 душно 1005.3 999.4
10 18.07 З 2 20 км 6/4 1000 м
[Cu med, cong Ac As]
+28.8 +18.0 52 +33 +42 очень
душно
1005.0 999.2
11 18.07 З 3 20 км 4/0
[Ac trans]
+30.1 +17.0 45 +34 +47 очень
душно
1004.5 998.7
12 18.07 З 2
{6}
20 км 6/4 1050 м
[Cu med, cong Ac As]
+30.0 +15.0 40 +32 +40 жарко 1004.3 998.5
13 18.07 З 3 20 км 5/5 1000 м
[Cu med, cong]
+30.8 +16.0 41 +34 +40 очень
душно
1004.0 998.2
14 18.07 З 4 20 км 5/5 1000 м
[Cu med, cong]
+30.9 +16.0 41 +34 +37 душно 1003.6 997.8
15 18.07 СЗ 4
{7}
20 км 4/4 1050 м
[Cu med, cong]
+29.9 +14.0 38 +32 +34 жарко 1004.0 998.2
16 18.07 СЗ 3 20 км 4/4 1000 м
[Cu med, cong]
+29.5 +15.0 41 +32 +33 душно 1004.2 998.4
17 18.07 СЗ 1 20 км 4/4 1000 м
[Cu med, cong]
+27.4 +14.0 44 +30 +30 жарко 1004.6 998.8
18 18.07 СЗ 1
{7}
20 км 5/3 1050 м
[Cu med, cong Ac trans]
+27.0 +15.0 48 +30 +30 душно 1004.9 999.1 +31.0
21 18.07 Ю 1
{2}
20 км 4/0
[Ac trans]
+23.2 +17.0 68 +28 +28 душно 1005.2 999.4
00 19.07 СЗ 3
{5}
20 км ясно +22.7 +14.0 58 +26 +26 жарко 1004.9 999.1
03 19.07 СЗ 3
{6}
20 км 5/3 1050 м
[Cu med, cong Ac trans]
+22.5 +15.0 63 +26 +26 жарко 1004.9 999.1
06 19.07 З 2
{6}
20 км ясно +23.5 +15.0 59 +26 +33 жарко 1004.6 998.8 +21.6
07 19.07 СЗ 3 20 км 4/3 1000 м
[Cu med, cong Ac trans]
+25.9 +16.0 54 +29 +35 душно 1004.6 998.8
08 19.07 З 3 20 км 5/4 1000 м
[Cu med, cong Ac trans]
+26.6 +15.0 49 +29 +37 жарко 1004.8 999.0
09 19.07 З 3
{6}
20 км 6/4 1050 м
[Cu med, cong Ac As]
+27.2 +15.0 47 +30 +37 душно 1005.0 999.2
10 19.07 З 2 20 км 5/5 1000 м
[Cu med, cong]
+27.9 +15.0 45 +30 +40 жарко 1005.1 999.3
11 19.07 З 3 20 км 5/5 1000 м
[Cu med, cong]
+28.7 +14.0 41 +31 +39 жарко 1005.0 999.2
12 19.07 З 3
{6}
20 км 6/6 1050 м
[Cu med, cong]
+30.2 +16.0 42 +33 +39 душно 1004.8 999.0
13 19.07 СЗ 3 20 км 6/6 1000 м
[Cu med, cong]
+29.5 +17.0 47 +33 +38 душно 1005.0 999.2
14 19.07 СЗ 2 20 км 6/6 1000 м
[Cu med, cong]
+28.9 +17.0 49 +33 +36 очень
душно
1005.0 999.2
15 19.07 З 3
{5}
20 км 4/4 1200 м
[Cu med, cong]
+30.1 +16.0 43 +33 +36 душно 1004.9 999.1
16 19.07 СЗ 2 20 км 4/4 1000 м
[Cu med, cong]
+29.6 +16.0 44 +33 +34 душно 1005.1 999.3
17 19.07 СЗ 3 20 км слабый ливневой дождь 8/6 1000 м
[Cu med, cong Ac As]
+25.9 +18.0 62 +30 +30 душно 1006.2 1000.3
18 19.07 З 3
{6}
20 км 6/5 1050 м
[Cu med, cong Ac As]
+24.5 +18.0 67 +29 +29 душно 1006.3 1000.4 +30.4 1
21 19.07 З 2
{4}
20 км 5/5 1200 м
[Cu med, cong]
+23.9 +17.0 65 +28 +28 душно 1007.1 1001.3
00 20.07 З 3
{6}
20 км 5/5 1200 м
[Cu med, cong]
+22.1 +16.0 68 +26 +26 душно 1007.2 1001.4

 

Местоположение метеостанции Edirne (Турция): широта 41.67 долгота 26.57 высота над уровнем моря 51 м.

В архиве по умолчанию представлена погода в Edirne за последнюю неделю. Архивные данные за месяц целиком и за предыдущие месяцы, начиная с января 2011 года, Вы можете получить, выбрав интересующий диапазон дат из раскрывающегося списка и нажав кнопку "Ввод!".


*Определитесь, кто Вы:
робот инопланетянин человек

Внимание! Время в таблицах - всемирное. Для получения местного времени необходимо прибавить поправку, которая в Edirne равна 2 ч.

Смотрите также архив погоды в соседних городах и на ближайших метеорологических станциях:

Погода в Kirklareli (Турция) (54 км)
Погода в Kurdjali (Болгария) (100 км)
Погода в Alexandroupoli (Греция) (106 км)
Погода в Tekirdag (Турция) (112 км)
Погода в Sliven (Болгария) (113 км)
Погода в Burgas (Болгария) (117 км)
Погода в Canakkale (Турция) (172 км)
Погода в Gokceada Airport (Турция) (173 км)
Погода в Gokceada (Турция) (175 км)
Погода в Chrysopouli (Греция) (182 км)

Пояснения к столбцам:

Ветер - указаны скорость ветра в м/с - средняя за 10 мин, порывы в срок и между сроками (в фигурных скобках) и направление, откуда дует ветер: С - северный, СВ - северо-восточный, В - восточный, ЮВ - юго-восточный, Ю - южный, ЮЗ - юго-западный, З - западный, СЗ - северо-западный.
Видимость - горизонтальная дальность видимости в метрах или километрах. При видимости от 1 до 10 км при отсутствии осадков обычно наблюдается дымка, при ухудшении видимости до 1 км и менее - туман. В сухую погоду видимость может ухудшаться дымом, пылью или мглою.
Явления - указаны атмосферные явления, наблюдавшиеся в срок или в последний час перед сроком; фигурными скобками обозначены явления, наблюдавшиеся между сроками (за 1-3 часа до срока); квадратными скобками обозначены град или гололедные отложения с указанием их диаметра в мм.
Облачность - указаны через наклонную черту общая и нижняя облачность в баллах и высота нижней границы облаков в метрах; квадратными скобками обозначены формы облаков: Ci - перистые, Cs - перисто-слоистые, Cc - перисто-кучевые, Ac - высококучевые, As - высокослоистые, Sc - слоисто-кучевые, Ns - слоисто-дождевые, Cu - кучевые, Cb - кучево-дождевые. Подробнее классификацию облаков см. в Атласе облаков (PDF).
T - Температура воздуха - температура, измеренная на высоте 2 м над землей.
Td - Температура точки росы - температура, при понижении до которой содержащийся в воздухе водяной пар достигнет насыщения.
f - Относительная влажность воздуха - влажноcть воздуха, измеренная на высоте 2 м над землей.
Te - Эффективная температура - температура, которую ощущает одетый по сезону человек в тени. Характеристика душности погоды. При расчете учитывается влияние влажности воздуха и скорости ветра на теплоощущения человека.
Tes - Эффективная температура на солнце - температура, которую ощущает человек, с поправкой на солнечный нагрев. Характеристика знойности погоды. Зависит от высоты солнца над горизонтом, облачности и скорости ветра. Ночью, в пасмурную погоду, а также при ветре 12 м/с и более поправка равна нулю.
P - Атмосферное давление - приведенное к уровню моря атмосферное давление.
Po - Атмосферное давление - измеренное на уровне метеостанции атмосферное давление.
Tmin - Минимальная температура - минимум температуры воздуха на высоте 2 м над землей.
Tmax - Максимальная температура - максимум температуры воздуха на высоте 2 м над землей.
R - Количество осадков - Количество выпавших осадков за период времени, мм. При наведении курсора мыши на число - период времени, за который выпало указанное количество осадков.
R24 - Количество осадков - Количество выпавших осадков за 24 часа, мм.
S - Снежный покров - Высота снежного покрова, см. При наведении курсора мыши на число - состояние снежного покрова и степень покрытия местности в баллах.